Regional Weather Roundup
Issued by NWS Albany, NY

Home | Current Version | Previous Version | Graphics & Text | Print | Product List | Glossary Off
Versions: 1 2 3 4 5 6 7 8 9 10 11 12 13 14 15 16 17 18 19 20 21 22 23 24 25 26 27

000
ASUS41 KALY 231110
RWRALY

NEW YORK STATE HOURLY WEATHER ROUNDUP
NATIONAL WEATHER SERVICE ALBANY NY
700 AM EDT WED APR 23 2014

NOTE: "FAIR" INDICATES FEW OR NO CLOUDS BELOW 12,000 FEET WITH NO
SIGNIFICANT WEATHER AND/OR NO OBSTRUCTIONS TO VISIBILITY.

NYZ032-033-038>043-046>054-057>066-NYZ062>081-231200-
EAST


CITY           SKY/WX    TMP DP  RH WIND       PRES   REMARKS
ALBANY         CLOUDY    45  36  70 NW12G20   29.57R
GLENS FALLS    CLOUDY    49  37  63 W6        29.55R
POUGHKEEPSIE   CLOUDY    48  45  89 CALM      29.55R
NEWBURGH       MOCLDY    46  39  76 W16       29.57R
MONTGOMERY     CLOUDY    47  35  63 VRB7      29.57R
WHITE PLAINS   MOCLDY    48  38  68 NW15G25   29.53R
ISLIP          CLOUDY    53  45  74 NW13G18   29.50R
NEW YORK CITY  MOCLDY    50  34  54 W18G28    29.56R
CENTRAL PARK   CLOUDY    50  34  54 VRB5G16   29.59R
$$

NYZ005>009-017-018-044>046-055-056-231200-
CENTRAL


CITY           SKY/WX    TMP DP  RH WIND       PRES   REMARKS
FULTON         LGT RAIN  41  38  89 NW9       29.69R
SYRACUSE       LGT RAIN  40  39  97 W14       29.67R WCI  32
ROME           LGT RAIN  39  38  96 W10       29.63R WCI  32
ELMIRA         CLOUDY    40  33  76 W7        29.70R
BINGHAMTON     CLOUDY    37  35  92 NW14G25   29.61R WCI  28
MONTICELLO     CLOUDY    39  36  87 NW16G22   29.59R WCI  30
$$

NYZ026>034-041>043-231200-
NORTH


CITY           SKY/WX    TMP DP  RH WIND       PRES   REMARKS
WATERTOWN      CLOUDY    43  36  76 N12       29.68R
FORT DRUM      NOT AVBL
MASSENA        CLOUDY    40  35  83 NW14      29.66R WCI  32
SARANAC LAKE   CLOUDY    37  35  92 VRB5      29.55R FOG     WCI  33
PLATTSBURGH    CLOUDY    44  38  79 NW12      29.56R
$$

NYZ001>004-010>016-019>021-231200-
WEST


CITY           SKY/WX    TMP DP  RH WIND       PRES   REMARKS
NIAGARA FALLS  LGT RAIN  36  33  89 NW15      29.82R WCI  27
BUFFALO        FLURRIES  37  33  85 NW13      29.81R WCI  29
DUNKIRK        CLOUDY    36  32  85 W10       29.86R WCI  28
JAMESTOWN      CLOUDY    34  28  80 W16       29.81R WCI  23
WELLSVILLE     CLOUDY    34  30  85 NW14      29.74R WCI  25
ROCHESTER      LGT RAIN  40  38  93 NW9       29.76R WCI  34
PENN YAN       LGT RAIN  39  35  86 W10G25    29.70R FOG     WCI  32
$$

             KEY
       WCI = WIND CHILL INDEX
       VSB = VISIBILITY
       HX  = HEAT INDEX
$$



USA.gov is the U.S. government's official web portal to all federal, state and local government web resources and services.